Location: Kumla
(59.1265°N, 15.1401°E)
Time: 17:56:18
(UTC+01:00)

Altair - Pass Details

Date: 09 December 2023
Orbit: 1501 x 1682 km, 47.2° (Epoch: 25 February)

Event Time Altitude Azimuth Distance (km) Brightness Sun altitude
Rises 06:28:45 0° 198° (SSW) 4,847 10.1 -14.8°
Reaches altitude 10° 06:32:54 10° 184° (S) 3,833 9.8 -14.3°
Maximum altitude 06:39:30 21° 141° (SE) 3,003 9.9 -13.5°
Drops below altitude 10° 06:45:57 10° 97° (E) 3,742 10.8 -12.8°
Sets 06:49:55 0° 82° (E) 4,701 11.1 -12.3°
